Last server records
Pro Nub

Map info

mls_wintercliff
mls_wintercliff ( Cosy-Climbing) 11.01.2018
Cosy-Climbing record voX - 01:23.08

KZ-Rush record voX - 01:23.08

Mapper  malaysia

Pro-record MEEL - 01:27.01

Nub-record how - 01:30.19 (20 cp / 1 gc)

Difficulty Easy-Average

Length Short

Download map mls_wintercliff (1,16 MB)
Installation instructions

Map Installation Guide

  1. Download map archive mls_wintercliff.zip
  2. Unzip the archive in any convenient folder
  3. Open cstrike folder, which is located in the place of Counter-Strike installation. In case of Steam version the path looks like Steam\steamapps\common\Half-Life
  4. Copy all files from the folder, where you unzipped the archive, to cstrike folder according to the following table (if your system asks about replacing files, choose Copy and Replace):
gfx/env/snowbk.tga>>gfx/env/snowbk.tga
gfx/env/snowdn.tga>>gfx/env/snowdn.tga
gfx/env/snowft.tga>>gfx/env/snowft.tga
gfx/env/snowlf.tga>>gfx/env/snowlf.tga
gfx/env/snowrt.tga>>gfx/env/snowrt.tga
gfx/env/snowup.tga>>gfx/env/snowup.tga
maps/mls_wintercliff.bsp>>maps/mls_wintercliff.bsp
maps/mls_wintercliff.res>>maps/mls_wintercliff.res
We don't know about shortcuts on this map

Community records

# Player Time Difference Date  
1 voX 01:23.08   22.03.20
2 spwkzpe 01:33.20 -00:10.12 08.04.18
3 tasi 02:28.40 -01:05.32 13.05.20
4 popojopik 02:50.19 -01:27.11 16.12.19
# Player Time Date Weapon
1 MEEL 01:27.01 15.05.19
2 how 01:27.18 07.03.20
3 nina_pullup 01:30.06 08.09.19
4 Penguin 01:30.84 10.11.19
5 Creep 01:34.32 11.06.18
6 misti 01:35.06 15.04.20
7 dropzone 01:35.53 11.06.18
8 SlasHeR 01:36.77 08.06.19
9 EnoT 01:38.14 07.03.20
10 blackfury 01:39.90 17.05.18
11 米扣啥人品 01:42.50 10.08.18
12 fingerdash 01:43.53 29.07.20
13 flajok 01:43.63 27.07.18
14 vadimzoredd 01:46.05 10.11.19
15 b0rup 01:47.61 07.03.20
16 DinGo 01:48.25 29.07.20
17 rapier 01:48.48 27.07.18
18 zmokiE 01:50.42 09.12.19
19 1111 01:50.70 10.08.18
20 erdik 01:53.04 27.07.18
21 oRR 01:56.72 08.06.19
22 sperik` 01:57.27 15.05.19
23 HARDSTYLE 01:59.12 29.07.20
24 inj3ct0r. 01:59.24 27.07.18
25 tolyatti 01:59.99 10.08.18
26 62unitz 02:00.07 27.05.19
27 insprate 02:04.70 10.08.18
28 JustDoIt 02:07.27 27.07.18
29 izi4 02:08.18 25.01.20
30 HjG-KazmaN 02:10.60 26.10.19
31 NeffeX 02:13.09 27.07.18
32 flores 02:19.74 10.08.18
33 gringazaaabr 02:19.93 09.12.19
34 abcdefg 02:25.75 10.11.19
35 Deadpool 02:26.97 07.03.20
36 PoweR 02:31.32 07.03.20
37 estrom 02:32.93 08.06.19
38 SShooolD 02:33.99 29.07.18
39 I_love_life 02:34.54 25.09.19
40 Master_Me4a 02:35.20 12.02.19
41 ZVD 02:37.12 23.10.19
42 exodus 02:41.31 09.12.19
43 RayajiN 02:44.59 22.06.18
44 Psihinator 02:45.30 09.12.19
45 Andro 02:59.04 15.05.19
46 avivVv 03:05.66 06.09.20
47 Jus7_M3 03:06.05 12.02.19
48 walkthedog 03:07.16 11.06.18
49 Conquest_l_Okich__R 03:12.18 15.05.19
50 say 03:14.87 09.12.19
51 MaeStro6773 03:16.31 15.04.20
52 devilmaycry 03:25.65 25.01.20
53 Darling 03:28.45 27.07.18
54 k1ever 03:31.07 12.02.19
55 Momonga 03:36.07 07.09.20
56 Masljonok 04:23.42 27.07.18
57 DON_SIMON 04:29.59 11.07.19
58 paradox 04:42.58 23.10.19
59 z1ka 04:58.96 07.09.20
60 Mazinja 05:02.58 27.07.18
61 trololo 05:11.34 23.10.18
62 maronny 05:58.54 15.05.19
# Player Time Date Weapon CP GC
1 how 01:30.19 07.03.20 20 1
2 Penguin 01:32.95 29.07.20 18 1
3 kappA_^ 01:34.77 10.08.18 9 2
4 flores 01:40.85 10.08.18 38 1
5 misti 01:42.35 15.04.20 19 3
6 Cobrex 01:43.25 07.03.20 26 2
7 DinGo 01:44.22 29.07.20 33 3
8 projecT 01:44.28 10.08.18 16 2
9 SlasHeR 01:44.77 08.06.19 25 2
10 flajok 01:46.38 27.07.18 7 1
11 reflx 01:49.31 15.05.19 33 4
12 Madaraxxx 01:52.24 10.08.18 32 6
13 hrapchello) 01:54.47 29.07.20 37 6
14 MarkiNN 01:54.84 27.07.18 23 9
15 S_R 01:56.80 26.10.19 31 5
16 MaVo^ 01:56.84 23.10.18 29 3
17 wwq 01:57.47 15.05.19 33 3
18 xenge 01:59.25 27.07.18 48 4
19 JustDoIt 02:00.80 27.07.18 46 3
20 rapier 02:02.10 27.07.18 31 5
21 Master_Me4a 02:05.21 12.02.19 54 3
22 ChooKy 02:05.93 26.10.19 38 2
23 KRATER_O 02:07.62 12.02.19 30 5
24 Pandemic 02:07.95 12.08.19 32 10
25 SShooolD 02:08.46 29.07.18 40 4
26 Izgoy 02:10.47 07.03.20 39 11
27 taipan 02:10.65 26.10.19 43 8
28 kvirre 02:10.71 07.03.20 42 7
29 sperik` 02:14.17 15.05.19 43 5
30 -ggbb. 02:15.40 23.10.18 42 4
31 hymm4sssS 02:17.68 07.03.20 46 7
32 _Tu4Ka 02:17.75 09.12.19 52 9
33 mls 02:17.90 08.06.19 52 10
34 [email protected] 02:19.98 11.06.18 35 13
35 p1aN1st 02:22.96 09.12.19 69 4
36 mvxtip 02:23.10 08.06.19 19 1
37 urosh_h 02:23.11 26.10.19 26 4
38 exodus 02:23.38 09.12.19 56 7
39 y4en1k_kocmonafta_D 02:23.55 15.05.19 63 12
40 nokia 02:29.93 08.06.19 48 13
41 Rooftop_Gorilla 02:31.46 27.05.19 44 10
42 [EV]_Bosco 02:32.49 09.12.19 47 12
43 Admin 02:38.99 15.05.19 59 13
44 Mo9I_urpa 02:39.00 27.07.18 57 5
45 hwz 02:40.58 26.10.19 31 7
46 maronny 02:48.17 12.02.19 47 16
47 thienlao111 02:48.64 07.03.20 55 16
48 [Æ]_rsd 02:50.15 10.08.18 48 22
49 walkthedog 02:52.85 27.07.19 64 12
50 Ryduk 02:54.40 25.08.18 65 23
51 voicezero 02:56.33 27.07.18 63 17
52 Lel 02:59.77 27.07.19 38 11
53 spamer_j 03:00.84 15.05.19 64 18
54 EnoT 03:01.01 07.03.20 41 19
55 Stanley 03:01.50 26.10.19 62 18
56 fingerdash 03:02.34 29.07.20 53 18
57 ella 03:04.17 08.06.19 74 10
58 aMX 03:04.44 15.05.19 70 23
59 slabiy_igrok 03:06.16 27.05.19 60 20
60 WERANCE 03:07.87 10.11.19 66 17
61 mistik 03:15.92 09.06.18 58 29
62 Selena_Gomez 03:21.06 09.12.19 57 20
63 LybbeN 03:24.39 11.06.18 49 16
64 smIlEy 03:24.82 08.06.19 44 22
65 Murderes46 03:28.17 15.05.19 53 27
66 qqafwq 03:30.45 07.03.20 80 24
67 gyx 03:31.02 15.05.19 60 36
68 SS 03:38.76 23.10.18 49 35
69 Koce 03:44.05 23.10.19 58 31
70 `mu 03:53.98 23.10.19 69 21
71 brr 03:56.14 08.06.19 72 35
72 rbN 03:57.62 23.10.18 54 27
73 Boni 03:58.25 09.12.19 53 25
74 ЭTa_Жи3Hb_HaXyu`_KиHOO 03:58.53 08.06.19 59 22
75 sliuM 03:59.49 21.11.19 80 34
76 insprate 04:08.23 10.08.18 46 21
77 Sm1ke 04:16.03 15.05.19 62 11
78 cadence 04:18.70 10.08.18 78 60
79 tymbo4ka 04:20.33 23.10.19 69 29
80 XEKA! 04:25.87 09.12.19 58 39
81 KeNi 04:28.24 15.05.19 50 36
82 [D]Blood_C 04:35.90 08.09.19 23 8
83 PEEW_PEEW 04:36.78 15.04.20 66 47
84 rPy3oBuk_C_HaBo3oM 04:37.73 08.06.19 88 36
85 ALLIGATORRR13 04:45.21 26.10.19 57 54
86 Sm1T 04:55.17 08.09.19 36 46
87 TRENTCANTRELLE 04:55.75 25.09.19 74 44
88 trololo 04:55.89 11.06.18 63 15
89 hyuasher 05:04.94 08.06.19 80 39
90 thx 05:11.59 15.05.19 106 58
91 300kg 05:16.66 07.07.18 29 51
92 nikee 05:25.98 07.03.20 57 40
93 Lifestealer 05:35.90 15.05.19 40 24
94 erqosk 05:40.16 15.04.20 39 17
95 zmokiE 05:45.56 09.12.19 83 71
96 Помипидорка123 06:12.83 27.07.18 68 48
97 DeZ 06:20.32 26.10.19 8 7
98 Valera2005 06:44.83 27.07.18 27 36
99 tehplayer 07:15.13 07.03.20 42 47
100 Dodik 07:15.31 08.06.19 105 79
101 BratishkinOneLove 07:24.93 15.05.19 75 87
102 antixaip 07:30.66 27.07.18 122 62
103 Negative_One 07:40.54 08.06.19 79 98
104 HAES_HAES_HAES_HAES_HAES_HAES 07:41.03 25.01.20 73 115
105 cstrike 08:08.49 10.08.18 55 98
106 ^ w^_640 08:45.31 07.03.20 94 79
# Player Time Date Weapon CP GC
1 Bu3T 03:14.24 23.10.18 69 27
# Player Time Date Weapon CP GC
1 silentq 03:00.66 22.06.18 24 4

Other maps with same difficulty

Other maps from Cosy-Climbing

Other maps from mapper malaysia